Regional Weather Roundup
Issued by NWS Albany, NY

Home | Current Version | Previous Version | Text Only | Print | Product List | Glossary On
Versions: 1 2 3 4 5 6 7 8 9 10 11 12 13 14 15 16 17 18 19 20 21 22 23 24 25 26 27 28 29 30 31 32 33 34 35 36 37 38 39 40 41 42 43 44 45 46 47 48 49 50
000
ASUS41 KALY 281410
RWRALY

NEW YORK STATE HOURLY WEATHER ROUNDUP
NATIONAL WEATHER SERVICE ALBANY NY
1000 AM EDT TUE MAR 28 2017

NOTE: "FAIR" INDICATES FEW OR NO CLOUDS BELOW 12,000 FEET WITH NO
SIGNIFICANT WEATHER AND/OR NO OBSTRUCTIONS TO VISIBILITY.

NYZ032-033-038>043-046>054-057>066-NYZ062>081-082-084-281500-
EAST


CITY           SKY/WX    TMP DP  RH WIND       PRES   REMARKS
ALBANY         CLOUDY    46  41  82 S6        29.94F FOG
GLENS FALLS    CLOUDY    41  39  93 E3        29.94S FOG
POUGHKEEPSIE   LGT RAIN  44  41  89 E6        29.93F
NEWBURGH       LGT RAIN  45  45 100 E7        29.95F FOG
MONTGOMERY     LGT RAIN  45  43  93 N6        29.93S FOG
WHITE PLAINS   FOG       42  40  92 E9        29.94S VSB 1
ISLIP          CLOUDY    46  44  93 E12G20    29.93F
NEW YORK CITY  CLOUDY    43  39  86 NE13      29.97R FOG
CENTRAL PARK   CLOUDY    43  42  97 E5        29.99R FOG
$$

NYZ005>009-017-018-044>046-055-056-281500-
CENTRAL


CITY           SKY/WX    TMP DP  RH WIND       PRES   REMARKS
FULTON         CLOUDY    45  42  89 CALM      29.91S
SYRACUSE       CLOUDY    45  42  89 CALM      29.92R
ROME           CLOUDY    45  43  93 E6        29.93R
ELMIRA         LGT RAIN  49  46  90 SE3       29.89S FOG
BINGHAMTON     LGT RAIN  45  45 100 CALM      29.89R VSB<1/4
MONTICELLO     CLOUDY    45  43  93 E3        29.93S VSB<1/4
$$

NYZ026>034-041>043-087-281500-
NORTH


CITY           SKY/WX    TMP DP  RH WIND       PRES   REMARKS
WATERTOWN      CLOUDY    45  45 100 W3        29.91S FOG
FORT DRUM      NOT AVBL
MASSENA        MIX PCPN  37  36  96 NW7       29.93R FOG     WCI  32
SARANAC LAKE   CLOUDY    45  45 100 W5        29.87S FOG
PLATTSBURGH    CLOUDY    39  36  89 E3        29.89S
$$

NYZ001>004-010>016-019>021-085-281500-
WEST


CITY           SKY/WX    TMP DP  RH WIND       PRES   REMARKS
NIAGARA FALLS  CLOUDY    45  40  82 N7        29.95R
BUFFALO        CLOUDY    47  43  86 N7        29.94R
DUNKIRK        CLOUDY    47  46  97 CALM      29.94R FOG
JAMESTOWN      CLOUDY    46  45  93 N5        29.91S
WELLSVILLE     LGT RAIN  49  47  93 NW5       29.92R FOG
ROCHESTER      LGT RAIN  48  47  96 N6        29.93R VSB 1/16
PENN YAN       LGT RAIN  53  46  77 CALM      29.91S
$$

             KEY
       WCI = WIND CHILL INDEX
       VSB = VISIBILITY
       HX  = HEAT INDEX
$$



USA.gov is the U.S. government's official web portal to all federal, state and local government web resources and services.